Time,TemperatureF,DewpointF,PressureIn,WindDirection,WindDirectionDegrees,WindSpeedMPH,WindSpeedGustMPH,Humidity,HourlyPrecipIn,Conditions,Clouds,dailyrainin,SolarRadiationWatts/m^2,SoftwareType,DateUTC
2013-04-04 00:02:00,52.7,49.8,29.82,West,274,3.5,3.5,90,0.00,RA,FEW,0.00,0.0,WeatherDisplay:10.37,2013-04-03 22:02:00,
2013-04-04 00:07:00,52.6,49.8,29.81,West,272,3.5,3.5,90,0.00,RA,FEW,0.00,0.0,WeatherDisplay:10.37,2013-04-03 22:07:00,
2013-04-04 00:12:00,52.5,49.7,29.81,West,272,3.5,3.5,90,0.00,CLR,FEW,0.00,0.0,WeatherDisplay:10.37,2013-04-03 22:12:00,
2013-04-04 00:17:00,52.6,50.0,29.82,West,272,4.6,4.6,91,0.00,CLR,FEW,0.00,0.0,WeatherDisplay:10.37,2013-04-03 22:17:00,
2013-04-04 00:22:00,52.6,50.0,29.82,West,279,2.3,2.3,91,0.00,CLR,FEW,0.00,0.0,WeatherDisplay:10.37,2013-04-03 22:22:00,
2013-04-04 00:27:00,52.6,49.8,29.82,West,279,3.5,3.5,90,0.00,CLR,FEW,0.00,0.0,WeatherDisplay:10.37,2013-04-03 22:27:00,
2013-04-04 00:32:00,52.6,49.8,29.82,West,279,3.5,3.5,90,0.00,CLR,FEW,0.00,0.0,WeatherDisplay:10.37,2013-04-03 22:32:00,
2013-04-04 00:37:00,52.6,49.8,29.81,West,279,3.5,3.5,90,0.00,CLR,FEW,0.00,0.0,WeatherDisplay:10.37,2013-04-03 22:37:00,
2013-04-04 00:42:00,52.6,49.8,29.81,West,279,2.3,2.3,90,0.00,CLR,FEW,0.00,0.0,WeatherDisplay:10.37,2013-04-03 22:42:00,
2013-04-04 00:48:00,52.5,49.7,29.81,West,279,4.6,4.6,90,0.00,CLR,FEW,0.00,0.0,WeatherDisplay:10.37,2013-04-03 22:48:00,
2013-04-04 00:53:00,52.6,49.8,29.81,West,279,2.3,0.0,90,0.00,CLR,FEW,0.00,0.0,WeatherDisplay:10.37,2013-04-03 22:53:00,
2013-04-04 00:58:00,52.6,49.8,29.82,West,279,0.0,0.0,90,0.00,CLR,FEW,0.00,0.0,WeatherDisplay:10.37,2013-04-03 22:58:00,
2013-04-04 01:03:00,52.6,49.8,29.82,West,279,1.2,1.2,90,0.00,CLR,FEW,0.00,0.0,WeatherDisplay:10.37,2013-04-03 23:03:00,
2013-04-04 01:08:00,52.6,49.8,29.82,West,279,2.3,0.0,90,0.00,CLR,FEW,0.00,0.0,WeatherDisplay:10.37,2013-04-03 23:08:00,
2013-04-04 01:13:00,52.6,49.8,29.81,West,279,1.2,0.0,90,0.00,CLR,FEW,0.00,0.0,WeatherDisplay:10.37,2013-04-03 23:13:00,
2013-04-04 01:18:00,52.7,49.8,29.82,West,279,1.2,1.2,90,0.00,CLR,FEW,0.00,0.0,WeatherDisplay:10.37,2013-04-03 23:18:00,
2013-04-04 01:24:00,52.6,49.8,29.82,West,279,1.2,1.2,90,0.00,CLR,FEW,0.00,0.0,WeatherDisplay:10.37,2013-04-03 23:24:00,
2013-04-04 01:29:00,52.5,49.7,29.82,West,279,0.0,0.0,90,0.00,CLR,FEW,0.00,0.0,WeatherDisplay:10.37,2013-04-03 23:29:00,
2013-04-04 01:34:00,52.5,49.7,29.82,West,279,0.0,0.0,90,0.00,CLR,FEW,0.00,0.0,WeatherDisplay:10.37,2013-04-03 23:34:00,
2013-04-04 01:39:00,52.4,49.6,29.82,West,279,0.0,0.0,90,0.00,CLR,FEW,0.00,0.0,WeatherDisplay:10.37,2013-04-03 23:39:00,
2013-04-04 01:44:00,52.3,49.5,29.82,West,279,0.0,0.0,90,0.00,CLR,FEW,0.00,0.0,WeatherDisplay:10.37,2013-04-03 23:44:00,
2013-04-04 01:49:00,52.3,49.5,29.82,West,279,0.0,0.0,90,0.00,CLR,FEW,0.00,0.0,WeatherDisplay:10.37,2013-04-03 23:49:00,
2013-04-04 01:54:00,52.2,49.4,29.82,West,279,1.0,1.0,90,0.00,CLR,FEW,0.00,0.0,WeatherDisplay:10.37,2013-04-03 23:54:00,
2013-04-04 02:00:00,52.2,49.7,29.82,West,279,0.0,0.0,91,0.00,CLR,FEW,0.00,0.0,WeatherDisplay:10.37,2013-04-04 00:00:00,
2013-04-04 02:05:00,52.2,49.7,29.81,West,279,1.2,0.0,91,0.00,CLR,FEW,0.00,0.0,WeatherDisplay:10.37,2013-04-04 00:05:00,
2013-04-04 02:10:00,52.2,49.7,29.82,West,279,0.0,0.0,91,0.00,CLR,FEW,0.00,0.0,WeatherDisplay:10.37,2013-04-04 00:10:00,
2013-04-04 02:15:00,52.2,49.7,29.82,West,279,1.2,1.2,91,0.00,CLR,FEW,0.00,0.0,WeatherDisplay:10.37,2013-04-04 00:15:00,
2013-04-04 02:20:00,52.1,49.6,29.82,West,279,0.0,0.0,91,0.00,CLR,FEW,0.00,0.0,WeatherDisplay:10.37,2013-04-04 00:20:00,
2013-04-04 02:25:00,52.1,49.6,29.82,West,279,1.2,1.2,91,0.00,CLR,FEW,0.00,0.0,WeatherDisplay:10.37,2013-04-04 00:25:00,
2013-04-04 02:30:00,52.1,49.6,29.82,West,279,1.2,1.2,91,0.00,CLR,FEW,0.00,0.0,WeatherDisplay:10.37,2013-04-04 00:30:00,
2013-04-04 02:37:00,52.1,49.6,29.82,SE,136,1.2,1.2,91,0.00,CLR,FEW,0.00,0.0,WeatherDisplay:10.37,2013-04-04 00:37:00,
2013-04-04 02:42:00,52.0,49.5,29.82,SE,136,1.2,1.2,91,0.00,CLR,FEW,0.00,0.0,WeatherDisplay:10.37,2013-04-04 00:42:00,
2013-04-04 02:47:00,52.0,49.5,29.82,SE,138,2.3,2.3,91,0.00,CLR,FEW,0.00,0.0,WeatherDisplay:10.37,2013-04-04 00:47:00,
2013-04-04 02:52:00,51.9,49.4,29.82,SE,138,3.5,3.5,91,0.00,CLR,FEW,0.00,0.0,WeatherDisplay:10.37,2013-04-04 00:52:00,
2013-04-04 02:57:00,51.7,49.2,29.82,SE,139,3.5,3.5,91,0.00,CLR,FEW,0.00,0.0,WeatherDisplay:10.37,2013-04-04 00:57:00,
2013-04-04 03:02:00,51.5,49.0,29.82,SE,139,3.5,3.5,91,0.00,CLR,FEW,0.00,0.0,WeatherDisplay:10.37,2013-04-04 01:02:00,
2013-04-04 03:07:00,51.3,48.8,29.82,SE,139,4.0,4.0,91,0.00,CLR,FEW,0.00,0.0,WeatherDisplay:10.37,2013-04-04 01:07:00,
2013-04-04 03:12:00,51.1,48.6,29.82,SE,139,2.3,2.3,91,0.00,CLR,FEW,0.00,0.0,WeatherDisplay:10.37,2013-04-04 01:12:00,
2013-04-04 03:17:00,50.9,48.4,29.82,SE,139,3.5,3.5,91,0.00,CLR,FEW,0.00,0.0,WeatherDisplay:10.37,2013-04-04 01:17:00,
2013-04-04 03:23:00,50.7,48.2,29.82,SE,139,3.5,3.5,91,0.00,CLR,FEW,0.00,0.0,WeatherDisplay:10.37,2013-04-04 01:23:00,
2013-04-04 03:28:00,50.5,48.0,29.82,SE,139,3.5,3.5,91,0.00,CLR,FEW,0.00,0.0,WeatherDisplay:10.37,2013-04-04 01:28:00,
2013-04-04 03:33:00,50.4,47.9,29.82,SE,139,4.0,4.0,91,0.00,CLR,FEW,0.00,0.0,WeatherDisplay:10.37,2013-04-04 01:33:00,
2013-04-04 03:38:00,50.2,47.7,29.82,SE,139,3.5,3.5,91,0.00,CLR,FEW,0.00,0.0,WeatherDisplay:10.37,2013-04-04 01:38:00,
2013-04-04 03:43:00,50.0,47.5,29.82,SE,139,3.5,3.5,91,0.00,CLR,FEW,0.00,0.0,WeatherDisplay:10.37,2013-04-04 01:43:00,
2013-04-04 03:48:00,49.8,47.3,29.82,SE,139,4.0,4.0,91,0.00,CLR,FEW,0.00,0.0,WeatherDisplay:10.37,2013-04-04 01:48:00,
2013-04-04 03:53:00,49.6,47.1,29.82,SE,139,3.5,3.5,91,0.00,CLR,FEW,0.00,0.0,WeatherDisplay:10.37,2013-04-04 01:53:00,
2013-04-04 03:58:00,49.5,47.0,29.82,SE,139,3.5,3.5,91,0.00,CLR,FEW,0.00,0.0,WeatherDisplay:10.37,2013-04-04 01:58:00,
2013-04-04 04:03:00,49.5,47.0,29.82,SE,139,2.3,2.3,91,0.00,CLR,FEW,0.00,0.0,WeatherDisplay:10.37,2013-04-04 02:03:00,
2013-04-04 04:08:00,49.4,46.9,29.83,SE,139,4.6,4.6,91,0.00,CLR,FEW,0.00,0.0,WeatherDisplay:10.37,2013-04-04 02:08:00,
2013-04-04 04:13:00,49.3,46.8,29.82,SE,139,5.0,5.0,91,0.00,CLR,FEW,0.00,0.0,WeatherDisplay:10.37,2013-04-04 02:13:00,
2013-04-04 04:18:00,49.5,47.0,29.82,SE,139,4.6,4.6,91,0.00,CLR,FEW,0.00,0.0,WeatherDisplay:10.37,2013-04-04 02:18:00,
2013-04-04 04:23:00,49.7,47.5,29.83,SE,139,5.8,5.8,92,0.00,CLR,FEW,0.00,0.0,WeatherDisplay:10.37,2013-04-04 02:23:00,
2013-04-04 04:28:00,49.9,47.4,29.82,SE,139,4.6,4.6,91,0.00,CLR,FEW,0.00,0.0,WeatherDisplay:10.37,2013-04-04 02:28:00,
2013-04-04 04:33:00,50.1,48.7,29.82,SE,139,5.8,5.8,95,0.00,CLR,FEW,0.00,0.0,WeatherDisplay:10.37,2013-04-04 02:33:00,
2013-04-04 04:39:00,50.2,47.7,29.82,SE,139,4.0,4.0,91,0.00,CLR,FEW,0.00,0.0,WeatherDisplay:10.37,2013-04-04 02:39:00,
2013-04-04 04:44:00,50.3,47.8,29.82,SE,139,2.3,2.3,91,0.00,CLR,FEW,0.00,0.0,WeatherDisplay:10.37,2013-04-04 02:44:00,
2013-04-04 04:49:00,50.4,47.9,29.82,SE,139,4.6,4.6,91,0.00,CLR,FEW,0.00,0.0,WeatherDisplay:10.37,2013-04-04 02:49:00,
2013-04-04 04:54:00,50.5,48.0,29.82,SE,135,5.8,5.8,91,0.00,CLR,FEW,0.00,0.0,WeatherDisplay:10.37,2013-04-04 02:54:00,
2013-04-04 04:59:00,50.7,48.2,29.82,SE,137,6.9,6.9,91,0.00,CLR,FEW,0.00,0.0,WeatherDisplay:10.37,2013-04-04 02:59:00,
2013-04-04 05:04:00,50.7,48.2,29.82,SE,130,4.0,4.0,91,0.00,CLR,FEW,0.00,0.0,WeatherDisplay:10.37,2013-04-04 03:04:00,
2013-04-04 05:10:00,50.8,48.3,29.83,SE,135,5.8,5.8,91,0.00,CLR,FEW,0.00,0.0,WeatherDisplay:10.37,2013-04-04 03:10:00,
2013-04-04 05:15:00,50.8,48.3,29.83,ESE,119,5.0,5.0,91,0.00,CLR,FEW,0.00,0.0,WeatherDisplay:10.37,2013-04-04 03:15:00,
2013-04-04 05:20:00,50.8,48.3,29.83,ESE,119,2.0,2.0,91,0.00,CLR,FEW,0.00,0.0,WeatherDisplay:10.37,2013-04-04 03:20:00,
2013-04-04 05:26:00,50.9,48.4,29.82,ESE,105,4.6,4.6,91,0.00,CLR,FEW,0.00,0.0,WeatherDisplay:10.37,2013-04-04 03:26:00,
2013-04-04 05:31:00,50.9,48.4,29.82,ESE,123,6.9,6.9,91,0.00,CLR,FEW,0.00,0.0,WeatherDisplay:10.37,2013-04-04 03:31:00,
2013-04-04 05:36:00,51.0,48.5,29.82,ESE,119,5.8,5.8,91,0.00,CLR,FEW,0.00,0.0,WeatherDisplay:10.37,2013-04-04 03:36:00,
2013-04-04 05:41:00,51.0,48.5,29.82,SE,134,6.9,6.9,91,0.00,CLR,FEW,0.00,0.0,WeatherDisplay:10.37,2013-04-04 03:41:00,
2013-04-04 05:46:00,51.0,48.5,29.82,ESE,123,8.1,8.1,91,0.00,CLR,FEW,0.00,0.0,WeatherDisplay:10.37,2013-04-04 03:46:00,
2013-04-04 05:51:00,51.0,48.5,29.82,South,178,5.8,5.8,91,0.00,CLR,FEW,0.00,0.0,WeatherDisplay:10.37,2013-04-04 03:51:00,
2013-04-04 05:56:00,51.1,48.6,29.82,South,169,8.0,8.0,91,0.00,CLR,FEW,0.00,0.0,WeatherDisplay:10.37,2013-04-04 03:56:00,
2013-04-04 06:00:00,51.1,48.6,29.82,SE,132,6.9,6.9,91,0.00,CLR,FEW,0.00,0.0,WeatherDisplay:10.37,2013-04-04 04:00:00,
2013-04-04 06:05:00,51.1,48.6,29.82,SE,140,5.8,5.8,91,0.00,CLR,FEW,0.00,0.0,WeatherDisplay:10.37,2013-04-04 04:05:00,
2013-04-04 06:10:00,51.2,48.7,29.82,SE,138,8.1,8.1,91,0.00,CLR,FEW,0.00,0.0,WeatherDisplay:10.37,2013-04-04 04:10:00,
2013-04-04 06:15:00,51.3,48.8,29.82,ESE,112,5.8,5.8,91,0.00,OVC,FEW,0.00,0.0,WeatherDisplay:10.37,2013-04-04 04:15:00,
2013-04-04 06:20:00,51.4,48.9,29.82,SSE,150,8.1,8.1,91,0.00,OVC,FEW,0.00,0.0,WeatherDisplay:10.37,2013-04-04 04:20:00,
2013-04-04 06:25:00,51.5,49.0,29.82,South,173,8.0,8.0,91,0.00,OVC,FEW,0.00,0.0,WeatherDisplay:10.37,2013-04-04 04:25:00,
2013-04-04 06:30:00,51.5,49.0,29.82,SSE,159,9.0,9.0,91,0.00,OVC,FEW,0.00,0.0,WeatherDisplay:10.37,2013-04-04 04:30:00,
2013-04-04 06:35:00,51.5,49.0,29.83,SSE,162,4.6,4.6,91,0.00,OVC,FEW,0.00,0.0,WeatherDisplay:10.37,2013-04-04 04:35:00,
2013-04-04 06:40:00,51.6,49.1,29.82,ESE,121,8.1,8.1,91,0.00,OVC,FEW,0.00,0.0,WeatherDisplay:10.37,2013-04-04 04:40:00,
2013-04-04 06:45:00,51.6,49.1,29.83,SE,127,11.5,11.5,91,0.00,OVC,FEW,0.00,0.0,WeatherDisplay:10.37,2013-04-04 04:45:00,
2013-04-04 06:51:00,51.6,49.1,29.83,South,175,7.0,7.0,91,0.00,OVC,FEW,0.00,0.0,WeatherDisplay:10.37,2013-04-04 04:51:00,
2013-04-04 06:56:00,51.6,49.1,29.83,SSE,149,10.4,10.4,91,0.00,OVC,FEW,0.00,0.0,WeatherDisplay:10.37,2013-04-04 04:56:00,
2013-04-04 07:02:00,51.8,49.3,29.83,SE,138,9.2,9.2,91,0.00,OVC,FEW,0.00,0.0,WeatherDisplay:10.37,2013-04-04 05:02:00,
2013-04-04 07:07:00,52.0,49.5,29.83,ESE,119,11.5,11.5,91,0.00,OVC,FEW,0.00,0.0,WeatherDisplay:10.37,2013-04-04 05:07:00,
2013-04-04 07:12:00,52.1,49.6,29.83,SE,138,10.4,10.4,91,0.00,OVC,FEW,0.00,0.0,WeatherDisplay:10.37,2013-04-04 05:12:00,
2013-04-04 07:17:00,52.2,49.7,29.83,SE,141,11.5,11.5,91,0.00,OVC,FEW,0.00,0.0,WeatherDisplay:10.37,2013-04-04 05:17:00,
2013-04-04 07:22:00,52.2,49.7,29.83,SE,141,9.2,9.2,91,0.00,OVC,FEW,0.00,0.0,WeatherDisplay:10.37,2013-04-04 05:22:00,
2013-04-04 07:27:00,52.2,49.7,29.83,SE,137,10.4,10.4,91,0.00,OVC,FEW,0.00,0.0,WeatherDisplay:10.37,2013-04-04 05:27:00,
2013-04-04 07:32:00,52.3,49.8,29.83,ESE,113,11.0,11.0,91,0.00,OVC,FEW,0.00,0.0,WeatherDisplay:10.37,2013-04-04 05:32:00,
2013-04-04 07:37:00,52.5,49.9,29.83,ESE,103,11.5,11.5,91,0.00,OVC,FEW,0.00,0.0,WeatherDisplay:10.37,2013-04-04 05:37:00,
2013-04-04 07:42:00,52.7,50.1,29.83,SE,139,9.2,9.2,91,0.00,OVC,FEW,0.00,0.0,WeatherDisplay:10.37,2013-04-04 05:42:00,
2013-04-04 07:47:00,52.9,50.0,29.83,East,101,9.0,9.0,90,0.00,OVC,FEW,0.00,0.0,WeatherDisplay:10.37,2013-04-04 05:47:00,
2013-04-04 07:52:00,53.0,50.1,29.83,SE,136,9.2,9.2,90,0.00,OVC,FEW,0.00,0.0,WeatherDisplay:10.37,2013-04-04 05:52:00,
2013-04-04 07:57:00,53.1,50.2,29.83,ESE,113,17.3,17.3,90,0.00,OVC,FEW,0.00,0.0,WeatherDisplay:10.37,2013-04-04 05:57:00,
2013-04-04 08:02:00,53.1,50.2,29.83,ESE,123,11.5,11.5,90,0.00,OVC,FEW,0.00,0.0,WeatherDisplay:10.37,2013-04-04 06:02:00,
2013-04-04 08:07:00,53.4,50.5,29.83,ESE,121,12.7,12.7,90,0.00,OVC,FEW,0.00,0.0,WeatherDisplay:10.37,2013-04-04 06:07:00,
2013-04-04 08:12:00,53.4,50.2,29.83,SE,137,11.5,11.5,89,0.00,OVC,FEW,0.00,0.0,WeatherDisplay:10.37,2013-04-04 06:12:00,
2013-04-04 08:17:00,53.4,50.2,29.82,ESE,106,9.2,9.2,89,0.00,OVC,FEW,0.00,0.0,WeatherDisplay:10.37,2013-04-04 06:17:00,
2013-04-04 08:22:00,53.6,50.4,29.82,SE,132,12.7,12.7,89,0.00,OVC,FEW,0.00,0.0,WeatherDisplay:10.37,2013-04-04 06:22:00,
2013-04-04 08:28:00,53.8,50.6,29.82,ESE,121,16.1,16.1,89,0.00,OVC,FEW,0.00,0.0,WeatherDisplay:10.37,2013-04-04 06:28:00,
2013-04-04 08:33:00,53.9,50.7,29.83,SE,130,12.7,12.7,89,0.00,OVC,FEW,0.00,0.0,WeatherDisplay:10.37,2013-04-04 06:33:00,
2013-04-04 08:38:00,53.8,50.3,29.83,ESE,106,15.0,15.0,88,0.00,OVC,FEW,0.00,0.0,WeatherDisplay:10.37,2013-04-04 06:38:00,
2013-04-04 08:43:00,53.9,50.7,29.83,ESE,122,17.3,17.3,89,0.00,OVC,FEW,0.00,0.0,WeatherDisplay:10.37,2013-04-04 06:43:00,
2013-04-04 08:48:00,54.0,50.8,29.82,ESE,104,12.7,12.7,89,0.00,OVC,FEW,0.00,0.0,WeatherDisplay:10.37,2013-04-04 06:48:00,
2013-04-04 08:53:00,54.1,50.6,29.82,South,184,15.0,15.0,88,0.00,OVC,FEW,0.00,0.0,WeatherDisplay:10.37,2013-04-04 06:53:00,
2013-04-04 08:58:00,54.1,50.6,29.82,ESE,122,15.0,15.0,88,0.00,OVC,FEW,0.00,0.0,WeatherDisplay:10.37,2013-04-04 06:58:00,
2013-04-04 09:03:00,54.4,50.9,29.82,SE,138,9.2,9.2,88,0.00,OVC,FEW,0.00,0.0,WeatherDisplay:10.37,2013-04-04 07:03:00,
2013-04-04 09:08:00,54.4,50.9,29.83,SE,127,13.8,13.8,88,0.00,OVC,FEW,0.00,0.0,WeatherDisplay:10.37,2013-04-04 07:08:00,
2013-04-04 09:13:00,54.5,51.0,29.82,ENE,59,18.4,18.4,88,0.00,OVC,FEW,0.00,0.0,WeatherDisplay:10.37,2013-04-04 07:13:00,
2013-04-04 09:18:00,54.6,50.8,29.82,SE,145,15.0,15.0,87,0.00,OVC,FEW,0.00,0.0,WeatherDisplay:10.37,2013-04-04 07:18:00,
2013-04-04 09:24:00,54.6,50.8,29.82,East,89,15.0,15.0,87,0.00,OVC,FEW,0.00,0.0,WeatherDisplay:10.37,2013-04-04 07:24:00,
2013-04-04 09:29:00,55.0,51.2,29.82,ESE,111,11.5,11.5,87,0.00,OVC,FEW,0.00,0.0,WeatherDisplay:10.37,2013-04-04 07:29:00,
2013-04-04 09:34:00,55.0,51.2,29.82,SSE,150,11.5,11.5,87,0.00,OVC,FEW,0.00,0.0,WeatherDisplay:10.37,2013-04-04 07:34:00,
2013-04-04 09:39:00,55.2,51.4,29.82,SE,128,15.0,15.0,87,0.00,OVC,FEW,0.00,0.0,WeatherDisplay:10.37,2013-04-04 07:39:00,
2013-04-04 09:44:00,55.2,51.1,29.82,SE,130,19.6,19.6,86,0.00,OVC,FEW,0.00,0.0,WeatherDisplay:10.37,2013-04-04 07:44:00,
2013-04-04 09:50:00,54.8,50.7,29.83,SE,131,16.0,16.0,86,0.00,OVC,FEW,0.00,0.0,WeatherDisplay:10.37,2013-04-04 07:50:00,
2013-04-04 09:55:00,54.7,50.6,29.83,SE,131,13.8,13.8,86,0.00,OVC,FEW,0.00,0.0,WeatherDisplay:10.37,2013-04-04 07:55:00,
2013-04-04 10:00:00,54.6,50.8,29.83,ESE,102,15.0,15.0,87,0.00,OVC,FEW,0.00,0.0,WeatherDisplay:10.37,2013-04-04 08:00:00,
2013-04-04 10:05:00,54.6,50.8,29.83,SE,130,15.0,15.0,87,0.00,OVC,FEW,0.00,0.0,WeatherDisplay:10.37,2013-04-04 08:05:00,
2013-04-04 10:10:00,54.7,50.9,29.83,ESE,107,19.6,19.6,87,0.00,OVC,FEW,0.00,0.0,WeatherDisplay:10.37,2013-04-04 08:10:00,
2013-04-04 10:15:00,54.6,50.8,29.83,SE,138,19.6,19.6,87,0.00,OVC,FEW,0.00,0.0,WeatherDisplay:10.37,2013-04-04 08:15:00,
2013-04-04 10:20:00,54.6,50.8,29.83,ESE,113,12.0,12.0,87,0.00,OVC,FEW,0.00,0.0,WeatherDisplay:10.37,2013-04-04 08:20:00,
2013-04-04 10:25:00,54.7,50.9,29.82,ESE,117,12.7,12.7,87,0.00,OVC,FEW,0.00,0.0,WeatherDisplay:10.37,2013-04-04 08:25:00,
2013-04-04 10:30:00,54.9,51.1,29.83,ESE,117,13.8,13.8,87,0.00,OVC,FEW,0.00,0.0,WeatherDisplay:10.37,2013-04-04 08:30:00,
2013-04-04 10:35:00,54.9,51.1,29.83,South,176,11.5,11.5,87,0.00,OVC,FEW,0.00,0.0,WeatherDisplay:10.37,2013-04-04 08:35:00,
2013-04-04 10:40:00,54.9,51.1,29.83,ESE,105,18.4,18.4,87,0.00,OVC,FEW,0.00,0.0,WeatherDisplay:10.37,2013-04-04 08:40:00,
2013-04-04 10:45:00,55.0,51.2,29.82,ESE,110,20.7,20.7,87,0.00,OVC,FEW,0.00,0.0,WeatherDisplay:10.37,2013-04-04 08:45:00,
2013-04-04 10:50:00,55.3,51.2,29.83,SE,124,18.4,18.4,86,0.00,OVC,FEW,0.00,0.0,WeatherDisplay:10.37,2013-04-04 08:50:00,
2013-04-04 10:56:00,55.3,51.2,29.83,SE,146,21.9,21.9,86,0.00,OVC,FEW,0.00,0.0,WeatherDisplay:10.37,2013-04-04 08:56:00,
2013-04-04 11:01:00,55.1,51.0,29.84,SSE,166,11.5,11.5,86,0.00,OVC,FEW,0.00,0.0,WeatherDisplay:10.37,2013-04-04 09:01:00,
2013-04-04 11:06:00,54.9,51.1,29.83,East,101,18.4,18.4,87,0.00,OVC,FEW,0.00,0.0,WeatherDisplay:10.37,2013-04-04 09:06:00,
2013-04-04 11:11:00,54.7,50.9,29.84,SE,129,10.0,20.0,87,0.00,OVC,FEW,0.00,0.0,WeatherDisplay:10.37,2013-04-04 09:11:00,
2013-04-04 11:16:00,54.8,51.0,29.84,ESE,121,21.0,21.0,87,0.00,OVC,FEW,0.00,0.0,WeatherDisplay:10.37,2013-04-04 09:16:00,
2013-04-04 11:21:00,55.0,51.2,29.84,ESE,111,15.0,15.0,87,0.00,OVC,FEW,0.00,0.0,WeatherDisplay:10.37,2013-04-04 09:21:00,
2013-04-04 11:27:00,55.1,51.3,29.83,SE,127,15.0,15.0,87,0.00,OVC,FEW,0.00,0.0,WeatherDisplay:10.37,2013-04-04 09:27:00,
2013-04-04 11:32:00,55.1,51.3,29.84,South,184,12.7,12.7,87,0.00,OVC,FEW,0.00,0.0,WeatherDisplay:10.37,2013-04-04 09:32:00,
2013-04-04 11:37:00,55.2,51.4,29.83,SSW,209,19.6,19.6,87,0.00,OVC,FEW,0.00,0.0,WeatherDisplay:10.37,2013-04-04 09:37:00,
2013-04-04 11:42:00,55.3,51.5,29.83,SE,126,19.6,19.6,87,0.00,OVC,FEW,0.00,0.0,WeatherDisplay:10.37,2013-04-04 09:42:00,
2013-04-04 11:47:00,55.5,51.4,29.83,ENE,73,19.6,19.6,86,0.00,OVC,FEW,0.00,0.0,WeatherDisplay:10.37,2013-04-04 09:47:00,
2013-04-04 11:52:00,55.6,51.2,29.83,ESE,111,19.6,19.6,85,0.00,OVC,FEW,0.00,0.0,WeatherDisplay:10.37,2013-04-04 09:52:00,
2013-04-04 11:57:00,55.8,51.4,29.83,NE,55,18.4,18.4,85,0.00,OVC,FEW,0.00,0.0,WeatherDisplay:10.37,2013-04-04 09:57:00,
2013-04-04 12:03:00,55.8,51.4,29.83,SSE,150,21.9,21.9,85,0.00,OVC,FEW,0.00,0.0,WeatherDisplay:10.37,2013-04-04 10:03:00,
2013-04-04 12:08:00,56.0,51.6,29.83,ESE,114,18.4,18.4,85,0.00,OVC,FEW,0.00,0.0,WeatherDisplay:10.37,2013-04-04 10:08:00,
2013-04-04 12:13:00,56.1,51.3,29.83,SE,125,19.6,19.6,84,0.00,OVC,FEW,0.00,0.0,WeatherDisplay:10.37,2013-04-04 10:13:00,
2013-04-04 12:18:00,56.2,51.4,29.83,ESE,111,19.6,19.6,84,0.00,OVC,FEW,0.00,0.0,WeatherDisplay:10.37,2013-04-04 10:18:00,
2013-04-04 12:23:00,56.1,51.3,29.83,South,170,19.6,19.6,84,0.00,OVC,FEW,0.00,0.0,WeatherDisplay:10.37,2013-04-04 10:23:00,
2013-04-04 12:29:00,56.3,51.5,29.83,SSE,149,19.6,19.6,84,0.00,OVC,FEW,0.00,0.0,WeatherDisplay:10.37,2013-04-04 10:29:00,
2013-04-04 12:34:00,56.4,51.6,29.82,North,360,18.4,18.4,84,0.00,OVC,FEW,0.00,0.0,WeatherDisplay:10.37,2013-04-04 10:34:00,
2013-04-04 12:39:00,56.4,51.3,29.81,WSW,240,19.6,19.6,83,0.00,OVC,FEW,0.00,0.0,WeatherDisplay:10.37,2013-04-04 10:39:00,
2013-04-04 12:44:00,56.3,51.5,29.81,East,98,15.0,15.0,84,0.00,OVC,FEW,0.00,0.0,WeatherDisplay:10.37,2013-04-04 10:44:00,
2013-04-04 12:49:00,56.2,51.1,29.81,South,178,19.6,19.6,83,0.00,OVC,FEW,0.00,0.0,WeatherDisplay:10.37,2013-04-04 10:49:00,
2013-04-04 12:54:00,56.5,51.7,29.81,SE,124,18.4,18.4,84,0.00,OVC,FEW,0.00,0.0,WeatherDisplay:10.37,2013-04-04 10:54:00,
2013-04-04 12:59:00,56.7,51.6,29.80,ESE,116,19.6,19.6,83,0.00,OVC,FEW,0.00,0.0,WeatherDisplay:10.37,2013-04-04 10:59:00,
2013-04-04 13:04:00,56.7,51.6,29.80,SSE,153,18.4,18.4,83,0.00,OVC,FEW,0.00,0.0,WeatherDisplay:10.37,2013-04-04 11:04:00,
2013-04-04 13:09:00,56.9,51.5,29.79,SE,136,15.0,15.0,82,0.00,OVC,FEW,0.00,0.0,WeatherDisplay:10.37,2013-04-04 11:09:00,
2013-04-04 13:14:00,57.3,51.9,29.79,SSE,150,15.0,15.0,82,0.00,OVC,FEW,0.00,0.0,WeatherDisplay:10.37,2013-04-04 11:14:00,
2013-04-04 13:19:00,57.9,52.4,29.78,SSE,153,15.0,15.0,82,0.00,OVC,FEW,0.00,0.0,WeatherDisplay:10.37,2013-04-04 11:19:00,
2013-04-04 13:24:00,57.9,52.1,29.79,East,83,19.6,19.6,81,0.00,OVC,FEW,0.00,0.0,WeatherDisplay:10.37,2013-04-04 11:24:00,
2013-04-04 13:29:00,57.7,51.9,29.79,ESE,119,18.4,18.4,81,0.00,OVC,FEW,0.00,0.0,WeatherDisplay:10.37,2013-04-04 11:29:00,
2013-04-04 13:35:00,57.8,52.0,29.79,South,177,15.0,15.0,81,0.00,OVC,FEW,0.00,0.0,WeatherDisplay:10.37,2013-04-04 11:35:00,
2013-04-04 13:40:00,57.4,51.3,29.79,ESE,120,23.0,23.0,80,0.00,OVC,FEW,0.00,0.0,WeatherDisplay:10.37,2013-04-04 11:40:00,
2013-04-04 13:45:00,57.2,51.4,29.78,ESE,123,22.0,22.0,81,0.00,OVC,FEW,0.00,0.0,WeatherDisplay:10.37,2013-04-04 11:45:00,
2013-04-04 13:50:00,56.6,50.8,29.78,South,178,16.1,16.1,81,0.00,OVC,FEW,0.00,0.0,WeatherDisplay:10.37,2013-04-04 11:50:00,
2013-04-04 13:55:00,56.5,51.1,29.78,East,87,18.4,18.4,82,0.00,OVC,FEW,0.00,0.0,WeatherDisplay:10.37,2013-04-04 11:55:00,
2013-04-04 14:00:00,56.7,51.3,29.76,ESE,107,20.7,20.7,82,0.00,OVC,FEW,0.00,0.0,WeatherDisplay:10.37,2013-04-04 12:00:00,
2013-04-04 14:05:00,57.1,51.7,29.76,South,175,24.2,24.2,82,0.00,OVC,FEW,0.00,0.0,WeatherDisplay:10.37,2013-04-04 12:05:00,
2013-04-04 14:10:00,57.6,51.8,29.76,SE,135,16.1,16.1,81,0.00,OVC,FEW,0.00,0.0,WeatherDisplay:10.37,2013-04-04 12:10:00,
2013-04-04 14:15:00,57.8,51.7,29.75,ESE,111,20.0,20.0,80,0.00,OVC,FEW,0.00,0.0,WeatherDisplay:10.37,2013-04-04 12:15:00,
2013-04-04 14:20:00,57.8,51.7,29.75,SSE,163,16.1,16.1,80,0.00,OVC,FEW,0.00,0.0,WeatherDisplay:10.37,2013-04-04 12:20:00,
2013-04-04 14:25:00,57.8,51.7,29.76,SSE,157,17.3,17.3,80,0.00,OVC,FEW,0.00,0.0,WeatherDisplay:10.37,2013-04-04 12:25:00,
2013-04-04 14:31:00,57.8,51.3,29.76,ESE,106,20.0,20.0,79,0.00,OVC,FEW,0.00,0.0,WeatherDisplay:10.37,2013-04-04 12:31:00,
2013-04-04 14:36:00,57.7,51.2,29.75,SSE,163,12.7,12.7,79,0.00,OVC,FEW,0.00,0.0,WeatherDisplay:10.37,2013-04-04 12:36:00,
2013-04-04 14:41:00,57.8,51.7,29.76,South,181,16.1,16.1,80,0.00,OVC,FEW,0.00,0.0,WeatherDisplay:10.37,2013-04-04 12:41:00,
2013-04-04 14:46:00,58.0,51.5,29.76,ESE,117,17.3,17.3,79,0.00,OVC,FEW,0.00,0.0,WeatherDisplay:10.37,2013-04-04 12:46:00,
2013-04-04 14:51:00,58.0,51.5,29.76,SE,128,18.4,18.4,79,0.00,OVC,FEW,0.00,0.0,WeatherDisplay:10.37,2013-04-04 12:51:00,
2013-04-04 14:56:00,57.9,51.4,29.75,SE,126,16.0,16.0,79,0.00,OVC,FEW,0.00,0.0,WeatherDisplay:10.37,2013-04-04 12:56:00,
2013-04-04 15:01:00,57.7,51.2,29.75,ESE,107,19.6,19.6,79,0.00,OVC,FEW,0.00,0.0,WeatherDisplay:10.37,2013-04-04 13:01:00,
2013-04-04 15:06:00,57.6,51.1,29.75,SE,131,19.6,19.6,79,0.00,OVC,FEW,0.00,0.0,WeatherDisplay:10.37,2013-04-04 13:06:00,
2013-04-04 15:12:00,57.7,50.9,29.74,ESE,114,19.6,19.6,78,0.00,OVC,FEW,0.00,0.0,WeatherDisplay:10.37,2013-04-04 13:12:00,
2013-04-04 15:17:00,57.9,51.4,29.74,ESE,119,19.6,19.6,79,0.00,OVC,FEW,0.00,0.0,WeatherDisplay:10.37,2013-04-04 13:17:00,
2013-04-04 15:22:00,58.3,51.5,29.74,SSE,147,21.9,21.9,78,0.00,OVC,FEW,0.00,0.0,WeatherDisplay:10.37,2013-04-04 13:22:00,
2013-04-04 15:27:00,58.4,51.6,29.73,ESE,111,17.3,17.3,78,0.00,OVC,FEW,0.00,0.0,WeatherDisplay:10.37,2013-04-04 13:27:00,
2013-04-04 15:32:00,58.7,51.5,29.72,East,92,18.0,18.0,77,0.00,OVC,FEW,0.00,0.0,WeatherDisplay:10.37,2013-04-04 13:32:00,
2013-04-04 15:37:00,58.8,51.2,29.72,SE,132,18.4,18.4,76,0.00,OVC,FEW,0.00,0.0,WeatherDisplay:10.37,2013-04-04 13:37:00,
2013-04-04 15:42:00,58.7,51.2,29.71,SSE,154,20.7,20.7,76,0.00,OVC,FEW,0.00,0.0,WeatherDisplay:10.37,2013-04-04 13:42:00,
2013-04-04 15:47:00,58.9,50.6,29.71,ESE,113,19.6,19.6,74,0.00,OVC,FEW,0.00,0.0,WeatherDisplay:10.37,2013-04-04 13:47:00,
2013-04-04 15:52:00,59.1,50.1,29.70,East,92,17.3,17.3,72,0.00,OVC,FEW,0.00,0.0,WeatherDisplay:10.37,2013-04-04 13:52:00,
2013-04-04 15:57:00,59.4,50.0,29.70,NE,49,16.1,16.1,71,0.00,OVC,FEW,0.00,0.0,WeatherDisplay:10.37,2013-04-04 13:57:00,
2013-04-04 16:02:00,59.7,49.5,29.70,South,190,20.7,20.7,69,0.00,OVC,FEW,0.00,0.0,WeatherDisplay:10.37,2013-04-04 14:02:00,
2013-04-04 16:07:00,60.0,49.0,29.69,East,80,20.7,20.7,67,0.00,OVC,FEW,0.00,0.0,WeatherDisplay:10.37,2013-04-04 14:07:00,
2013-04-04 16:12:00,60.1,49.1,29.69,South,188,19.6,19.6,67,0.00,OVC,FEW,0.00,0.0,WeatherDisplay:10.37,2013-04-04 14:12:00,
2013-04-04 16:17:00,60.3,48.9,29.68,SE,137,19.6,19.6,66,0.00,OVC,FEW,0.00,0.0,WeatherDisplay:10.37,2013-04-04 14:17:00,
2013-04-04 16:22:00,60.4,48.2,29.68,SE,133,15.0,15.0,64,0.00,OVC,FEW,0.00,0.0,WeatherDisplay:10.37,2013-04-04 14:22:00,
2013-04-04 16:27:00,60.4,47.3,29.68,ESE,121,27.0,27.0,62,0.00,OVC,FEW,0.00,0.0,WeatherDisplay:10.37,2013-04-04 14:27:00,
2013-04-04 16:33:00,60.0,46.5,29.68,East,80,17.3,17.3,61,0.00,OVC,FEW,0.00,0.0,WeatherDisplay:10.37,2013-04-04 14:33:00,
2013-04-04 16:38:00,59.6,44.8,29.68,SSE,167,16.1,16.1,58,0.00,OVC,FEW,0.00,0.0,WeatherDisplay:10.37,2013-04-04 14:38:00,
2013-04-04 16:43:00,59.4,42.7,29.68,South,183,19.6,19.6,54,0.00,OVC,FEW,0.00,0.0,WeatherDisplay:10.37,2013-04-04 14:43:00,
2013-04-04 16:48:00,59.5,42.8,29.68,SSE,157,20.7,20.7,54,0.00,OVC,FEW,0.00,0.0,WeatherDisplay:10.37,2013-04-04 14:48:00,
2013-04-04 16:53:00,59.6,42.4,29.67,South,173,13.8,13.8,53,0.00,OVC,FEW,0.00,0.0,WeatherDisplay:10.37,2013-04-04 14:53:00,
2013-04-04 16:58:00,59.9,42.7,29.67,SSE,153,19.6,19.6,53,0.00,OVC,FEW,0.00,0.0,WeatherDisplay:10.37,2013-04-04 14:58:00,
2013-04-04 17:03:00,60.1,43.4,29.67,SE,144,13.8,13.8,54,0.00,OVC,FEW,0.00,0.0,WeatherDisplay:10.37,2013-04-04 15:03:00,
2013-04-04 17:08:00,60.4,44.6,29.67,ESE,121,13.8,13.8,56,0.00,OVC,FEW,0.00,0.0,WeatherDisplay:10.37,2013-04-04 15:08:00,
2013-04-04 17:13:00,60.6,45.7,29.67,ESE,123,16.1,16.1,58,0.00,OVC,FEW,0.00,0.0,WeatherDisplay:10.37,2013-04-04 15:13:00,
2013-04-04 17:19:00,60.9,46.9,29.67,SE,126,17.3,17.3,60,0.00,OVC,FEW,0.00,0.0,WeatherDisplay:10.37,2013-04-04 15:19:00,
2013-04-04 17:24:00,61.0,47.4,29.66,SE,132,11.5,11.5,61,0.00,OVC,FEW,0.00,0.0,WeatherDisplay:10.37,2013-04-04 15:24:00,
2013-04-04 17:30:00,61.1,47.5,29.67,East,89,10.4,10.4,61,0.00,OVC,FEW,0.00,0.0,WeatherDisplay:10.37,2013-04-04 15:30:00,
2013-04-04 17:35:00,61.2,47.6,29.67,ESE,108,11.0,11.0,61,0.00,OVC,FEW,0.00,0.0,WeatherDisplay:10.37,2013-04-04 15:35:00,
2013-04-04 17:40:00,61.3,47.3,29.66,SE,136,15.0,15.0,60,0.00,OVC,FEW,0.00,0.0,WeatherDisplay:10.37,2013-04-04 15:40:00,
2013-04-04 17:45:00,61.7,46.8,29.66,East,99,13.8,13.8,58,0.00,OVC,FEW,0.00,0.0,WeatherDisplay:10.37,2013-04-04 15:45:00,
2013-04-04 17:50:00,61.9,46.0,29.66,East,97,12.7,12.7,56,0.00,OVC,FEW,0.00,0.0,WeatherDisplay:10.37,2013-04-04 15:50:00,
2013-04-04 17:55:00,62.1,45.2,29.65,ENE,61,12.7,12.7,54,0.00,OVC,FEW,0.00,0.0,WeatherDisplay:10.37,2013-04-04 15:55:00,
2013-04-04 18:00:00,62.0,42.6,29.65,ESE,109,18.4,18.4,49,0.00,OVC,FEW,0.00,0.0,WeatherDisplay:10.37,2013-04-04 16:00:00,
2013-04-04 18:05:00,62.1,39.9,29.65,East,89,12.7,12.7,44,0.00,OVC,FEW,0.00,0.0,WeatherDisplay:10.37,2013-04-04 16:05:00,
2013-04-04 18:10:00,62.2,40.6,29.64,ENE,74,15.0,15.0,45,0.00,OVC,FEW,0.00,0.0,WeatherDisplay:10.37,2013-04-04 16:10:00,
2013-04-04 18:15:00,62.2,40.6,29.64,East,92,16.1,16.1,45,0.00,OVC,FEW,0.00,0.0,WeatherDisplay:10.37,2013-04-04 16:15:00,
2013-04-04 18:20:00,62.1,41.1,29.64,South,180,12.7,12.7,46,0.00,OVC,FEW,0.00,0.0,WeatherDisplay:10.37,2013-04-04 16:20:00,
2013-04-04 18:25:00,62.3,40.1,29.64,ENE,57,18.4,18.4,44,0.00,OVC,FEW,0.00,0.0,WeatherDisplay:10.37,2013-04-04 16:25:00,
2013-04-04 18:30:00,62.3,40.7,29.64,ENE,71,16.1,16.1,45,0.00,OVC,FEW,0.00,0.0,WeatherDisplay:10.37,2013-04-04 16:30:00,
2013-04-04 18:36:00,62.3,40.7,29.64,ESE,110,17.3,17.3,45,0.00,OVC,FEW,0.00,0.0,WeatherDisplay:10.37,2013-04-04 16:36:00,
2013-04-04 18:41:00,62.3,40.7,29.64,ESE,104,15.0,15.0,45,0.00,OVC,FEW,0.00,0.0,WeatherDisplay:10.37,2013-04-04 16:41:00,
2013-04-04 18:46:00,62.4,41.3,29.63,NE,51,13.8,13.8,46,0.00,OVC,FEW,0.00,0.0,WeatherDisplay:10.37,2013-04-04 16:46:00,
2013-04-04 18:51:00,62.4,41.3,29.63,ESE,113,9.0,15.0,46,0.00,OVC,FEW,0.00,0.0,WeatherDisplay:10.37,2013-04-04 16:51:00,
2013-04-04 18:56:00,62.5,41.4,29.63,ENE,74,11.5,11.5,46,0.00,OVC,FEW,0.00,0.0,WeatherDisplay:10.37,2013-04-04 16:56:00,
2013-04-04 19:02:00,62.5,41.4,29.63,East,101,8.0,15.0,46,0.00,OVC,FEW,0.00,0.0,WeatherDisplay:10.37,2013-04-04 17:02:00,
2013-04-04 19:07:00,62.4,41.3,29.63,ENE,76,13.8,13.8,46,0.00,OVC,FEW,0.00,0.0,WeatherDisplay:10.37,2013-04-04 17:07:00,
2013-04-04 19:12:00,62.5,41.4,29.62,ENE,74,11.5,11.5,46,0.00,OVC,FEW,0.00,0.0,WeatherDisplay:10.37,2013-04-04 17:12:00,
2013-04-04 19:17:00,62.5,40.9,29.62,NE,42,13.8,13.8,45,0.00,OVC,FEW,0.00,0.0,WeatherDisplay:10.37,2013-04-04 17:17:00,
2013-04-04 19:22:00,62.6,40.9,29.62,East,84,14.0,14.0,45,0.00,OVC,FEW,0.00,0.0,WeatherDisplay:10.37,2013-04-04 17:22:00,
2013-04-04 19:28:00,62.7,39.9,29.62,NE,53,16.1,16.1,43,0.00,OVC,FEW,0.00,0.0,WeatherDisplay:10.37,2013-04-04 17:28:00,
2013-04-04 19:33:00,63.2,39.7,29.61,ESE,121,13.8,13.8,42,0.00,OVC,FEW,0.00,0.0,WeatherDisplay:10.37,2013-04-04 17:33:00,
2013-04-04 19:38:00,63.3,38.6,29.61,ENE,71,17.3,17.3,40,0.00,OVC,FEW,0.00,0.0,WeatherDisplay:10.37,2013-04-04 17:38:00,
2013-04-04 19:43:00,63.4,39.3,29.61,East,86,11.5,11.5,41,0.00,OVC,FEW,0.00,0.0,WeatherDisplay:10.37,2013-04-04 17:43:00,
2013-04-04 19:48:00,63.4,39.3,29.61,SW,215,11.5,11.5,41,0.00,OVC,FEW,0.00,0.0,WeatherDisplay:10.37,2013-04-04 17:48:00,
2013-04-04 19:53:00,63.3,39.2,29.61,ESE,112,15.0,15.0,41,0.00,OVC,FEW,0.00,0.0,WeatherDisplay:10.37,2013-04-04 17:53:00,
2013-04-04 19:58:00,63.4,39.3,29.61,SE,126,17.3,17.3,41,0.00,OVC,FEW,0.00,0.0,WeatherDisplay:10.37,2013-04-04 17:58:00,
2013-04-04 20:03:00,63.3,39.8,29.62,SE,129,9.2,9.2,42,0.00,CLR,FEW,0.00,0.0,WeatherDisplay:10.37,2013-04-04 18:03:00,
2013-04-04 20:08:00,63.3,40.4,29.62,ESE,109,11.0,11.0,43,0.00,CLR,FEW,0.00,0.0,WeatherDisplay:10.37,2013-04-04 18:08:00,
2013-04-04 20:13:00,63.1,40.8,29.62,East,79,10.4,10.4,44,0.00,CLR,FEW,0.00,0.0,WeatherDisplay:10.37,2013-04-04 18:13:00,
2013-04-04 20:18:00,63.0,40.7,29.62,ESE,106,13.8,13.8,44,0.00,CLR,FEW,0.00,0.0,WeatherDisplay:10.37,2013-04-04 18:18:00,
2013-04-04 20:23:00,62.9,41.2,29.62,SSE,152,13.8,13.8,45,0.00,CLR,FEW,0.00,0.0,WeatherDisplay:10.37,2013-04-04 18:23:00,
2013-04-04 20:28:00,62.9,42.4,29.62,ESE,117,13.8,13.8,47,0.00,CLR,FEW,0.00,0.0,WeatherDisplay:10.37,2013-04-04 18:28:00,
2013-04-04 20:33:00,62.7,43.8,29.62,SE,127,10.4,10.4,50,0.00,CLR,FEW,0.00,0.0,WeatherDisplay:10.37,2013-04-04 18:33:00,
2013-04-04 20:39:00,62.3,45.9,29.62,SE,141,9.2,9.2,55,0.00,CLR,FEW,0.00,0.0,WeatherDisplay:10.37,2013-04-04 18:39:00,
2013-04-04 20:45:00,61.5,46.6,29.62,SE,135,11.5,11.5,58,0.00,CLR,FEW,0.00,0.0,WeatherDisplay:10.37,2013-04-04 18:45:00,
2013-04-04 20:50:00,60.7,46.3,29.62,SE,131,13.8,13.8,59,0.00,CLR,FEW,0.00,0.0,WeatherDisplay:10.37,2013-04-04 18:50:00,
2013-04-04 20:55:00,60.3,46.8,29.62,SSE,151,16.1,16.1,61,0.00,CLR,FEW,0.00,0.0,WeatherDisplay:10.37,2013-04-04 18:55:00,
2013-04-04 21:00:00,59.9,45.5,29.62,SSE,148,11.5,11.5,59,0.00,CLR,FEW,0.00,0.0,WeatherDisplay:10.37,2013-04-04 19:00:00,
2013-04-04 21:05:00,59.4,44.6,29.62,SE,124,12.7,12.7,58,0.00,CLR,FEW,0.00,0.0,WeatherDisplay:10.37,2013-04-04 19:05:00,
2013-04-04 21:10:00,59.2,44.4,29.62,SSE,161,16.1,16.1,58,0.00,CLR,FEW,0.00,0.0,WeatherDisplay:10.37,2013-04-04 19:10:00,
2013-04-04 21:15:00,59.0,44.7,29.62,SSE,162,15.0,15.0,59,0.00,CLR,FEW,0.00,0.0,WeatherDisplay:10.37,2013-04-04 19:15:00,
2013-04-04 21:20:00,58.8,44.0,29.62,SE,140,11.5,11.5,58,0.00,CLR,FEW,0.00,0.0,WeatherDisplay:10.37,2013-04-04 19:20:00,
2013-04-04 21:25:00,58.8,43.6,29.62,SSE,166,16.1,16.1,57,0.00,CLR,FEW,0.00,0.0,WeatherDisplay:10.37,2013-04-04 19:25:00,
2013-04-04 21:30:00,59.0,43.8,29.62,East,91,19.6,19.6,57,0.00,CLR,FEW,0.00,0.0,WeatherDisplay:10.37,2013-04-04 19:30:00,
2013-04-04 21:35:00,59.3,44.5,29.63,SSE,167,11.5,11.5,58,0.00,CLR,FEW,0.00,0.0,WeatherDisplay:10.37,2013-04-04 19:35:00,
2013-04-04 21:40:00,59.4,45.1,29.63,SSE,159,18.4,18.4,59,0.00,CLR,FEW,0.00,0.0,WeatherDisplay:10.37,2013-04-04 19:40:00,
2013-04-04 21:45:00,59.3,45.4,29.63,ESE,121,14.0,14.0,60,0.00,CLR,FEW,0.00,0.0,WeatherDisplay:10.37,2013-04-04 19:45:00,
2013-04-04 21:50:00,59.4,45.9,29.63,SSE,165,6.0,6.0,61,0.00,CLR,FEW,0.00,0.0,WeatherDisplay:10.37,2013-04-04 19:50:00,
2013-04-04 21:55:00,59.2,46.6,29.62,ENE,77,11.5,11.5,63,0.00,CLR,FEW,0.00,0.0,WeatherDisplay:10.37,2013-04-04 19:55:00,
2013-04-04 22:01:00,58.8,47.1,29.62,SSE,149,11.5,11.5,65,0.00,CLR,FEW,0.00,0.0,WeatherDisplay:10.37,2013-04-04 20:01:00,
2013-04-04 22:06:00,58.5,47.6,29.62,ENE,63,11.5,11.5,67,0.00,CLR,FEW,0.00,0.0,WeatherDisplay:10.37,2013-04-04 20:06:00,
2013-04-04 22:11:00,58.4,47.5,29.61,South,182,9.2,9.2,67,0.00,CLR,FEW,0.00,0.0,WeatherDisplay:10.37,2013-04-04 20:11:00,
2013-04-04 22:16:00,58.5,46.8,29.60,SE,128,15.0,15.0,65,0.00,CLR,FEW,0.00,0.0,WeatherDisplay:10.37,2013-04-04 20:16:00,
2013-04-04 22:21:00,58.8,46.2,29.60,SE,141,11.5,11.5,63,0.00,CLR,FEW,0.00,0.0,WeatherDisplay:10.37,2013-04-04 20:21:00,
2013-04-04 22:26:00,59.3,46.2,29.60,NE,55,12.7,12.7,62,0.00,CLR,FEW,0.00,0.0,WeatherDisplay:10.37,2013-04-04 20:26:00,
2013-04-04 22:31:00,59.4,47.2,29.59,SE,140,11.5,11.5,64,0.00,CLR,FEW,0.00,0.0,WeatherDisplay:10.37,2013-04-04 20:31:00,
2013-04-04 22:36:00,59.1,47.3,29.59,South,169,11.5,11.5,65,0.00,CLR,FEW,0.00,0.0,WeatherDisplay:10.37,2013-04-04 20:36:00,
2013-04-04 22:41:00,59.0,47.2,29.59,SE,146,11.5,11.5,65,0.00,CLR,FEW,0.00,0.0,WeatherDisplay:10.37,2013-04-04 20:41:00,
2013-04-04 22:46:00,59.0,47.6,29.58,SE,134,15.0,15.0,66,0.00,CLR,FEW,0.00,0.0,WeatherDisplay:10.37,2013-04-04 20:46:00,
2013-04-04 22:51:00,59.1,47.3,29.58,SSE,165,11.5,11.5,65,0.00,CLR,FEW,0.00,0.0,WeatherDisplay:10.37,2013-04-04 20:51:00,
2013-04-04 22:56:00,59.3,47.5,29.58,ESE,117,8.1,8.1,65,0.00,CLR,FEW,0.00,0.0,WeatherDisplay:10.37,2013-04-04 20:56:00,
2013-04-04 23:01:00,59.5,48.1,29.58,SE,144,11.5,11.5,66,0.00,CLR,FEW,0.00,0.0,WeatherDisplay:10.37,2013-04-04 21:01:00,
2013-04-04 23:06:00,59.8,47.6,29.58,SE,134,16.1,16.1,64,0.00,CLR,FEW,0.00,0.0,WeatherDisplay:10.37,2013-04-04 21:06:00,
2013-04-04 23:11:00,60.5,47.0,29.58,East,97,11.5,11.5,61,0.00,CLR,FEW,0.00,0.0,WeatherDisplay:10.37,2013-04-04 21:11:00,
2013-04-04 23:16:00,60.9,46.9,29.58,ESE,117,11.5,11.5,60,0.00,CLR,FEW,0.00,0.0,WeatherDisplay:10.37,2013-04-04 21:16:00,
2013-04-04 23:21:00,61.1,47.1,29.58,ESE,113,7.0,12.0,60,0.00,CLR,FEW,0.00,0.0,WeatherDisplay:10.37,2013-04-04 21:21:00,
2013-04-04 23:26:00,61.4,46.5,29.58,East,97,11.5,11.5,58,0.00,CLR,FEW,0.00,0.0,WeatherDisplay:10.37,2013-04-04 21:26:00,
2013-04-04 23:31:00,61.5,46.1,29.58,SE,126,11.5,11.5,57,0.00,CLR,FEW,0.00,0.0,WeatherDisplay:10.37,2013-04-04 21:31:00,
2013-04-04 23:37:00,61.7,45.4,29.58,East,90,11.5,11.5,55,0.00,CLR,FEW,0.00,0.0,WeatherDisplay:10.37,2013-04-04 21:37:00,
2013-04-04 23:42:00,62.0,44.7,29.58,SE,137,12.7,12.7,53,0.00,CLR,FEW,0.00,0.0,WeatherDisplay:10.37,2013-04-04 21:42:00,
2013-04-04 23:47:00,62.2,44.3,29.58,East,97,9.2,9.2,52,0.00,CLR,FEW,0.00,0.0,WeatherDisplay:10.37,2013-04-04 21:47:00,
2013-04-04 23:52:00,62.2,44.3,29.58,South,170,11.0,11.0,52,0.00,CLR,FEW,0.00,0.0,WeatherDisplay:10.37,2013-04-04 21:52:00,
2013-04-04 23:57:00,62.2,45.3,29.58,SSE,159,17.3,17.3,54,0.00,CLR,FEW,0.00,0.0,WeatherDisplay:10.37,2013-04-04 21:57:00,